Voltar ao catálogo

STARLINK-35529

AtivoComunicaçõesVLEO
NORAD 66259·PAYLOAD·🇺🇸 United States

Lançado Oct 29, 2025 de Cape Canaveral Space Force Station

Loading…

Próximas Passagens (próximas 24 horas)

TLE

AtualizadoSource: CelesTrak SupGP

Época: Sep 14, 2026, 22:52 UTC

1 66259C 25245AB  26257.95326389 -.00019506  00000+0 -62732-3 0  2575
2 66259  53.1564 123.6532 0001161  81.1836 130.1873 15.31709212    17

Acompanhe STARLINK-35529 em tempo real com AllMySat

Download on the App Store